| time (UTC) | temp F | wind direction | speed MPH | gust MPH | rain 1hr in | rain 24hr in | rain mn in | humidity % | barometer mb |
| 20260904145458 | 78 | 165 | 3.0 | 7.0 | 0.00 | 0.04 | 0.05 | 96 | 1013.4 |
| 20260904144433 | 78 | 137 | 2.0 | 7.0 | 0.00 | 0.04 | 0.05 | 96 | 1013.5 |
| 20260904142310 | 78 | 174 | 3.0 | 8.0 | 0.00 | 0.04 | 0.05 | 96 | 1013.2 |
| 20260904141305 | 77 | 192 | 4.0 | 8.0 | 0.00 | 0.04 | 0.05 | 96 | 1013.2 |
| 20260904135047 | 77 | 159 | 3.0 | 8.0 | 0.00 | 0.04 | 0.04 | 95 | 1013.0 |
| 20260904134051 | 77 | 153 | 2.0 | 8.0 | 0.05 | 0.04 | 0.04 | 95 | 1013.1 |
| 20260904133051 | 77 | 138 | 3.0 | 6.0 | 0.06 | 0.03 | 0.03 | 94 | 1013.0 |
| 20260904131010 | 78 | 121 | 1.0 | 6.0 | 0.00 | 0.01 | 0.01 | 93 | 1013.3 |
| 20260904125945 | 78 | 155 | 2.0 | 7.0 | 0.00 | 0.00 | 0.00 | 93 | 1013.2 |
| 20260904124919 | 78 | 90 | 2.0 | 7.0 | 0.00 | 0.00 | 0.00 | 92 | 1012.9 |
| 20260904123934 | 78 | 123 | 0.0 | 4.0 | 0.00 | 0.00 | 0.00 | 92 | 1012.9 |
| 20260904122935 | 78 | 119 | 0.0 | 0.0 | 0.00 | 0.00 | 0.00 | 92 | 1013.1 |
| 20260904121927 | 78 | 44 | 0.0 | 0.0 | 0.00 | 0.00 | 0.00 | 92 | 1013.2 |
| 20260904120912 | 78 | 44 | 0.0 | 0.0 | 0.00 | 0.00 | 0.00 | 91 | 1012.9 |
| 20260904115854 | 78 | 44 | 0.0 | 2.0 | 0.00 | 0.00 | 0.00 | 91 | 1012.7 |
| 20260904114834 | 78 | 115 | 1.0 | 4.0 | 0.00 | 0.00 | 0.00 | 91 | 1012.4 |
| 20260904113837 | 78 | 63 | 2.0 | 5.0 | 0.00 | 0.00 | 0.00 | 91 | 1012.0 |
| 20260904112838 | 78 | 84 | 2.0 | 5.0 | 0.00 | 0.00 | 0.00 | 91 | 1011.8 |
| 20260904111838 | 78 | 119 | 3.0 | 8.0 | 0.00 | 0.00 | 0.00 | 91 | 1011.6 |
| 20260904110825 | 78 | 88 | 3.0 | 8.0 | 0.00 | 0.00 | 0.00 | 90 | 1011.4 |
| 20260904105755 | 78 | 127 | 4.0 | 8.0 | 0.00 | 0.00 | 0.00 | 90 | 1011.4 |
| 20260904104757 | 78 | 140 | 3.0 | 7.0 | 0.00 | 0.00 | 0.00 | 90 | 1011.4 |
| 20260904103757 | 78 | 124 | 3.0 | 7.0 | 0.00 | 0.00 | 0.00 | 90 | 1011.3 |
| 20260904101649 | 79 | 125 | 2.0 | 7.0 | 0.00 | 0.00 | 0.00 | 89 | 1011.2 |
| 20260904100617 | 79 | 138 | 2.0 | 6.0 | 0.00 | 0.00 | 0.00 | 88 | 1011.3 |
| 20260904095614 | 79 | 152 | 2.0 | 7.0 | 0.00 | 0.00 | 0.00 | 88 | 1011.2 |
| 20260904094620 | 79 | 125 | 2.0 | 8.0 | 0.00 | 0.00 | 0.00 | 87 | 1011.2 |
| 20260904093621 | 79 | 120 | 3.0 | 9.0 | 0.00 | 0.00 | 0.00 | 87 | 1011.2 |
| 20260904092552 | 79 | 144 | 3.0 | 9.0 | 0.00 | 0.00 | 0.00 | 87 | 1011.2 |
| 20260904091523 | 79 | 144 | 3.0 | 7.0 | 0.00 | 0.00 | 0.00 | 87 | 1011.1 |
| 20260904090458 | 79 | 111 | 4.0 | 11.0 | 0.00 | 0.00 | 0.00 | 87 | 1011.2 |
| 20260904085511 | 79 | 121 | 4.0 | 11.0 | 0.00 | 0.00 | 0.00 | 86 | 1011.2 |
| 20260904084449 | 79 | 174 | 5.0 | 12.0 | 0.00 | 0.00 | 0.00 | 86 | 1011.3 |
| 20260904083446 | 80 | 155 | 3.0 | 12.0 | 0.00 | 0.00 | 0.00 | 86 | 1011.2 |
| 20260904082506 | 80 | 175 | 5.0 | 13.0 | 0.00 | 0.00 | 0.00 | 86 | 1011.4 |
| 20260904081449 | 80 | 116 | 5.0 | 13.0 | 0.00 | 0.00 | 0.00 | 86 | 1011.3 |
| 20260904080425 | 80 | 149 | 5.0 | 11.0 | 0.00 | 0.00 | 0.00 | 86 | 1011.3 |
| 20260904074244 | 80 | 107 | 4.0 | 9.0 | 0.00 | 0.00 | 0.00 | 86 | 1011.3 |
| 20260904073248 | 80 | 119 | 4.0 | 9.0 | 0.00 | 0.00 | 0.00 | 86 | 1011.4 |
| 20260904072233 | 80 | 105 | 3.0 | 10.0 | 0.00 | 0.00 | 0.00 | 85 | 1011.5 |
| 20260904071225 | 80 | 91 | 5.0 | 10.0 | 0.00 | 0.00 | 0.00 | 85 | 1011.6 |
| 20260904070210 | 80 | 126 | 4.0 | 17.0 | 0.00 | 0.00 | 0.00 | 85 | 1011.6 |
| 20260904065212 | 80 | 98 | 5.0 | 17.0 | 0.00 | 0.00 | 0.00 | 85 | 1011.6 |
| 20260904064140 | 80 | 128 | 5.0 | 12.0 | 0.00 | 0.00 | 0.00 | 84 | 1011.6 |
| 20260904063132 | 80 | 117 | 6.0 | 12.0 | 0.00 | 0.00 | 0.00 | 84 | 1011.8 |
| 20260904062058 | 80 | 120 | 5.0 | 10.0 | 0.00 | 0.00 | 0.00 | 84 | 1011.5 |
| 20260904061056 | 80 | 92 | 4.0 | 9.0 | 0.00 | 0.00 | 0.00 | 84 | 1011.5 |
| 20260904060119 | 80 | 130 | 4.0 | 9.0 | 0.00 | 0.00 | 0.00 | 84 | 1011.5 |
| 20260904055104 | 80 | 162 | 5.0 | 11.0 | 0.00 | 0.00 | 0.00 | 84 | 1011.5 |
| 20260904054105 | 80 | 67 | 3.0 | 12.0 | 0.00 | 0.00 | 0.00 | 84 | 1011.6 |
| 20260904053126 | 80 | 100 | 4.0 | 12.0 | 0.00 | 0.00 | 0.00 | 84 | 1011.5 |
| 20260904052117 | 80 | 107 | 4.0 | 10.0 | 0.00 | 0.00 | 0.00 | 84 | 1011.5 |
| 20260904051043 | 80 | 92 | 5.0 | 10.0 | 0.00 | 0.00 | 0.00 | 83 | 1011.5 |
| 20260904050028 | 80 | 107 | 5.0 | 10.0 | 0.00 | 0.00 | 0.00 | 83 | 1011.4 |
| 20260904045010 | 80 | 57 | 3.0 | 7.0 | 0.00 | 0.00 | 0.00 | 83 | 1011.4 |
| 20260904044030 | 80 | 165 | 4.0 | 9.0 | 0.00 | 0.00 | 0.00 | 82 | 1011.4 |
| 20260904043014 | 80 | 103 | 4.0 | 14.0 | 0.00 | 0.00 | 0.00 | 82 | 1011.4 |
| 20260904042035 | 80 | 84 | 4.0 | 14.0 | 0.00 | 0.00 | 0.00 | 82 | 1011.2 |
| 20260904041049 | 80 | 109 | 5.0 | 10.0 | 0.00 | 0.00 | 0.00 | 81 | 1011.3 |
| 20260904040040 | 81 | 91 | 5.0 | 12.0 | 0.00 | 0.00 | 0.00 | 80 | 1011.3 |
| 20260904035013 | 81 | 83 | 5.0 | 12.0 | 0.00 | 0.00 | 0.00 | 80 | 1011.2 |
| 20260904034000 | 81 | 120 | 5.0 | 10.0 | 0.00 | 0.00 | 0.00 | 79 | 1011.2 |
| 20260904033018 | 81 | 75 | 6.0 | 11.0 | 0.00 | 0.00 | 0.00 | 79 | 1011.3 |
| 20260904032032 | 81 | 90 | 4.0 | 11.0 | 0.00 | 0.00 | 0.00 | 78 | 1011.3 |
| 20260904031029 | 81 | 129 | 5.0 | 11.0 | 0.00 | 0.00 | 0.00 | 77 | 1011.2 |
| 20260904024937 | 82 | 117 | 4.0 | 11.0 | 0.00 | 0.00 | 0.00 | 77 | 1010.9 |
| 20260904023929 | 82 | 108 | 4.0 | 11.0 | 0.00 | 0.00 | 0.00 | 76 | 1010.7 |
| 20260904022948 | 82 | 74 | 5.0 | 11.0 | 0.00 | 0.00 | 0.00 | 76 | 1010.5 |
| 20260904021952 | 82 | 116 | 5.0 | 10.0 | 0.00 | 0.00 | 0.00 | 76 | 1010.6 |
| 20260904021000 | 82 | 69 | 5.0 | 10.0 | 0.00 | 0.00 | 0.00 | 75 | 1010.3 |
| 20260904020010 | 83 | 102 | 3.0 | 9.0 | 0.00 | 0.00 | 0.00 | 75 | 1010.3 |
| 20260904014951 | 83 | 90 | 4.0 | 11.0 | 0.00 | 0.00 | 0.00 | 75 | 1010.2 |
| 20260904012853 | 84 | 96 | 5.0 | 15.0 | 0.00 | 0.00 | 0.00 | 73 | 1010.1 |
| 20260904011844 | 84 | 87 | 5.0 | 15.0 | 0.00 | 0.00 | 0.00 | 73 | 1010.0 |
| 20260904010823 | 84 | 78 | 4.0 | 12.0 | 0.00 | 0.00 | 0.00 | 73 | 1010.0 |
| 20260904004748 | 85 | 77 | 5.0 | 15.0 | 0.00 | 0.00 | 0.00 | 71 | 1009.7 |
| 20260904003719 | 86 | 62 | 6.0 | 17.0 | 0.00 | 0.00 | 0.00 | 71 | 1009.7 |
| 20260904002731 | 86 | 52 | 6.0 | 17.0 | 0.00 | 0.00 | 0.00 | 71 | 1009.6 |
| 20260904000556 | 88 | 46 | 7.0 | 15.0 | 0.00 | 0.00 | 0.00 | 71 | 1009.5 |
| 20260903235600 | 89 | 65 | 7.0 | 14.0 | 0.00 | 0.00 | 0.00 | 70 | 1009.4 |
| 20260903233438 | 90 | 67 | 8.0 | 21.0 | 0.00 | 0.00 | 0.00 | 71 | 1009.2 |
| 20260903232422 | 91 | 77 | 9.0 | 21.0 | 0.00 | 0.00 | 0.00 | 68 | 1009.0 |
| 20260903231438 | 91 | 90 | 8.0 | 19.0 | 0.00 | 0.00 | 0.00 | 67 | 1008.9 |
| 20260903230420 | 92 | 77 | 8.0 | 19.0 | 0.00 | 0.00 | 0.00 | 65 | 1008.8 |
| 20260903225352 | 92 | 71 | 7.0 | 19.0 | 0.00 | 0.00 | 0.00 | 64 | 1008.7 |
| 20260903224324 | 93 | 96 | 7.0 | 18.0 | 0.00 | 0.00 | 0.00 | 63 | 1008.8 |
| 20260903222209 | 94 | 22 | 7.0 | 18.0 | 0.00 | 0.00 | 0.00 | 59 | 1008.6 |
| 20260903221227 | 95 | 75 | 8.0 | 18.0 | 0.00 | 0.00 | 0.00 | 58 | 1008.5 |
| 20260903220247 | 95 | 101 | 7.0 | 15.0 | 0.00 | 0.00 | 0.00 | 59 | 1008.5 |
| 20260903215306 | 96 | 69 | 7.0 | 15.0 | 0.00 | 0.00 | 0.00 | 57 | 1008.5 |
| 20260903214326 | 96 | 30 | 6.0 | 13.0 | 0.00 | 0.00 | 0.00 | 57 | 1008.5 |
| 20260903213301 | 97 | 142 | 6.0 | 14.0 | 0.00 | 0.00 | 0.00 | 55 | 1008.8 |
| 20260903212244 | 97 | 113 | 7.0 | 14.0 | 0.00 | 0.00 | 0.00 | 56 | 1008.8 |
| 20260903210108 | 97 | 28 | 6.0 | 12.0 | 0.00 | 0.00 | 0.00 | 54 | 1008.9 |
| 20260903205035 | 96 | 87 | 5.0 | 13.0 | 0.00 | 0.00 | 0.00 | 56 | 1009.1 |
| 20260903204026 | 96 | 85 | 6.0 | 13.0 | 0.00 | 0.00 | 0.00 | 55 | 1009.3 |
| 20260903203016 | 96 | 82 | 5.0 | 12.0 | 0.00 | 0.00 | 0.00 | 55 | 1009.4 |
| 20260903195805 | 94 | 61 | 6.0 | 12.0 | 0.00 | 0.00 | 0.00 | 58 | 1009.8 |
| 20260903194814 | 94 | 92 | 6.0 | 12.0 | 0.00 | 0.00 | 0.00 | 59 | 1009.8 |
| 20260903193815 | 93 | 48 | 6.0 | 12.0 | 0.00 | 0.00 | 0.00 | 61 | 1010.1 |
| 20260903192802 | 93 | 89 | 5.0 | 12.0 | 0.00 | 0.00 | 0.00 | 62 | 1010.3 |
| 20260903191756 | 92 | 111 | 5.0 | 12.0 | 0.00 | 0.00 | 0.00 | 63 | 1010.3 |
| 20260903185639 | 91 | 63 | 4.0 | 10.0 | 0.00 | 0.00 | 0.00 | 64 | 1010.7 |
| 20260903184657 | 91 | 70 | 4.0 | 9.0 | 0.00 | 0.00 | 0.00 | 66 | 1010.9 |
| 20260903183719 | 90 | 65 | 5.0 | 10.0 | 0.00 | 0.00 | 0.00 | 66 | 1011.0 |
| 20260903182718 | 90 | 82 | 4.0 | 10.0 | 0.00 | 0.00 | 0.00 | 67 | 1011.1 |
| 20260903181718 | 90 | 18 | 5.0 | 9.0 | 0.00 | 0.00 | 0.00 | 67 | 1011.2 |
| 20260903180732 | 91 | 68 | 3.0 | 7.0 | 0.00 | 0.00 | 0.00 | 65 | 1011.3 |
| 20260903175701 | 90 | 73 | 3.0 | 7.0 | 0.00 | 0.00 | 0.00 | 64 | 1011.5 |
| 20260903174639 | 90 | 58 | 3.0 | 7.0 | 0.00 | 0.00 | 0.00 | 64 | 1011.6 |
| 20260903173645 | 90 | 74 | 3.0 | 7.0 | 0.00 | 0.00 | 0.00 | 65 | 1011.8 |
| 20260903172706 | 90 | 47 | 3.0 | 7.0 | 0.00 | 0.00 | 0.00 | 64 | 1011.9 |
| 20260903171706 | 90 | 113 | 2.0 | 6.0 | 0.00 | 0.00 | 0.00 | 65 | 1012.0 |
| 20260903170655 | 90 | 93 | 2.0 | 7.0 | 0.00 | 0.00 | 0.00 | 65 | 1012.1 |
| 20260903165644 | 89 | 176 | 3.0 | 7.0 | 0.00 | 0.00 | 0.00 | 68 | 1012.0 |
| 20260903164618 | 89 | 173 | 4.0 | 7.0 | 0.00 | 0.00 | 0.00 | 69 | 1011.8 |
| 20260903163631 | 88 | 124 | 5.0 | 12.0 | 0.00 | 0.00 | 0.00 | 69 | 1011.9 |
| 20260903162655 | 88 | 179 | 5.0 | 12.0 | 0.00 | 0.00 | 0.00 | 71 | 1011.8 |
| 20260903161654 | 87 | 147 | 5.0 | 12.0 | 0.00 | 0.00 | 0.00 | 73 | 1011.8 |
| 20260903160628 | 86 | 123 | 6.0 | 12.0 | 0.00 | 0.00 | 0.00 | 73 | 1011.9 |
| 20260903155607 | 85 | 161 | 6.0 | 12.0 | 0.00 | 0.00 | 0.00 | 74 | 1011.9 |
| 20260903154554 | 85 | 138 | 5.0 | 9.0 | 0.00 | 0.00 | 0.00 | 76 | 1011.8 |
| 20260903153543 | 84 | 186 | 5.0 | 14.0 | 0.00 | 0.00 | 0.00 | 77 | 1011.7 |
| 20260903152553 | 84 | 164 | 7.0 | 14.0 | 0.00 | 0.00 | 0.00 | 78 | 1011.7 |
| 20260903151551 | 83 | 162 | 5.0 | 13.0 | 0.00 | 0.00 | 0.00 | 79 | 1011.6 |